Location: Tauranga
(37.6860°S, 176.1670°E)
Time: 10:46:54
(UTC+12:00)

Cosmos 1151 Rocket - Pass Details

Date: 24 January 2019
Orbit: 593 x 615 km, 82.5° (Epoch: 18 April)

Event Time Altitude Azimuth Distance (km) Brightness Sun altitude
Exits shadow 21:47:57 -1° 351° (N) 2,924 6.2 -13.2°
Rises 21:48:11 0° 351° (N) 2,827 6.2 -13.3°
Reaches altitude 10° 21:50:22 10° 350° (N) 1,935 5.3 -13.6°
Maximum altitude 21:54:39 78° 263° (W) 625 3.1 -14.3°
Drops below altitude 10° 21:59:02 10° 176° (S) 1,975 6.1 -14.9°
Sets 22:01:17 0° 174° (S) 2,890 7.0 -15.3°
